Location: *
(28.2408°N, 53.4600°E)
Time: 16:28:47
(UTC+00:00)

Lacrosse 5 rocket - Pass Details

Date: 22 September 2019
Orbit: 459 x 639 km, 57.0° (Epoch: 19 October)

Event Time Altitude Azimuth Distance (km) Brightness Sun altitude
Rises 15:13:39 0° 239° (WSW) 2,463 5.6 -11.9°
Reaches altitude 10° 15:16:00 10° 252° (WSW) 1,595 4.8 -12.4°
Maximum altitude 15:19:02 26° 312° (NW) 941 3.2 -13.1°
Drops below altitude 10° 15:22:09 10° 10° (N) 1,634 3.7 -13.8°
Sets 15:24:35 0° 24° (NNE) 2,537 4.6 -14.3°
